Change the Weather History Date:

Wednesday, February 20, 2013

  Actual Average Record
Temperature  
Mean Temperature 67 °F -  
Max Temperature 84 °F 78 °F 87 °F (2006)
Min Temperature 50 °F 45 °F 41 °F (1998)
Cooling Degree Days 2    
Growing Degree Days 17 (Base 50)    
Moisture  
Dew Point 32 °F    
Average Humidity 30    
Maximum Humidity 50    
Minimum Humidity 11    
Precipitation  
Precipitation 0.00 in - - ()
Sea Level Pressure  
Sea Level Pressure 30.03 in    
Wind  
Wind Speed 3 mph ()    
Max Wind Speed 14 mph    
Max Gust Speed 28 mph    
Visibility 9.0 miles    
Events      
Averages and records for this station are not official NWS values.
T = Trace of Precipitation, MM = Missing Value Source: Averaged Metar Reports

Daily Weather History Graph

Daily Weather History Graph

Search for Another Location

Airport or City:

Trip Planner

Search our weather history database for the weather conditions in past years. The results will help you decide how hot, cold, wet, or windy it might be!

Date:

Astronomy

Feb. 20, 2013 Rise Set
Actual Time 7:12 AM CST 6:46 PM CST
Civil Twilight 6:50 AM CST 7:09 PM CST
Nautical Twilight 6:24 AM CST 7:35 PM CST
Astronomical Twilight 5:58 AM CST 8:01 PM CST
Moon 2:31 PM CST (2/20) 3:12 AM CST (2/20)
Length of Visible Light 12h 19m
Length of Day
11h 34m
Waxing Gibbous, 76% of the Moon is Illuminated
Feb 20
Waxing Gibbous
Feb 25
Full
Mar 4
Last Quarter
Mar 11
New
Mar 19
First Quarter

Hourly Weather History & Observations

Time (CST) Temp. Dew Point Humidity Pressure Visibility Wind Dir Wind Speed Gust Speed Precip Events Conditions
12:41 AM 57.2 °F 28.4 °F 33% 30.18 in 8.0 mi Calm Calm - N/A   Scattered Clouds
1:49 AM 59.0 °F 32.0 °F 36% 30.19 in 8.0 mi Calm Calm - N/A   Scattered Clouds
3:45 AM 53.6 °F 32.0 °F 44% 30.19 in 8.0 mi Calm Calm - N/A   Scattered Clouds
4:43 AM 51.8 °F 32.0 °F 47% 30.17 in 8.0 mi Calm Calm - N/A   Scattered Clouds
5:50 AM 53.6 °F 32.0 °F 44% 29.83 in 8.0 mi NNE 6.9 mph - N/A   Scattered Clouds
6:48 AM 51.8 °F 32.0 °F 47% 30.20 in 8.0 mi NE 6.9 mph - N/A   Scattered Clouds
7:58 AM 50.0 °F 32.0 °F 50% 30.21 in 10.0 mi Calm Calm - N/A   Mostly Cloudy
8:40 AM 60.8 °F 33.8 °F 36% 29.85 in 10.0 mi Calm Calm - N/A   Mostly Cloudy
9:48 AM 69.8 °F 33.8 °F 27% 30.24 in 10.0 mi South 3.5 mph - N/A   Mostly Cloudy
10:40 AM 71.6 °F 35.6 °F 27% 30.24 in 10.0 mi Calm Calm - N/A   Mostly Cloudy
11:48 AM 78.8 °F 35.6 °F 21% 29.81 in 10.0 mi SW 6.9 mph - N/A   Mostly Cloudy
12:41 PM 80.6 °F 33.8 °F 18% 30.18 in 10.0 mi SW 9.2 mph - N/A   Mostly Cloudy
1:53 PM 84.2 °F 32.0 °F 15% 30.12 in 10.0 mi SW 9.2 mph - N/A   Mostly Cloudy
2:45 PM 84.2 °F 30.2 °F 14% 29.65 in 10.0 mi SW 10.4 mph 26.5 mph N/A   Mostly Cloudy
3:44 PM 84.2 °F 24.8 °F 11% 30.06 in 10.0 mi WSW 13.8 mph 27.6 mph N/A   Mostly Cloudy
4:46 PM 84.2 °F 28.4 °F 13% 30.06 in 10.0 mi WSW 11.5 mph 23.0 mph N/A   Mostly Cloudy
5:41 PM 78.8 °F 32.0 °F 18% 29.68 in 10.0 mi WSW 13.8 mph - N/A   Mostly Cloudy
7:43 PM 69.8 °F 32.0 °F 25% 30.09 in 8.0 mi WSW 5.8 mph - N/A   Mostly Cloudy
8:41 PM 66.2 °F 32.0 °F 28% 29.75 in 8.0 mi West 10.4 mph - N/A   Mostly Cloudy
9:44 PM 62.6 °F 32.0 °F 32% 30.12 in 8.0 mi Calm Calm - N/A   Mostly Cloudy
10:50 PM 62.6 °F 32.0 °F 32% 30.14 in 8.0 mi North 6.9 mph - N/A   Scattered Clouds
11:50 PM 60.8 °F 33.8 °F 36% 29.75 in 8.0 mi Calm Calm - N/A   Scattered Clouds